Zurück zum Katalog

DMSP 5D-2 F13 DEB

AktivPO
NORAD 42322·DEBRIS·🇺🇸 United States

Gestartet Mar 24, 1995 von Vandenberg Space Force Base

Loading…

Nächste Überflüge (nächste 24 Stunden)

TLE

AlterndSource: Space-Track

Epoche: Sep 7, 2026, 11:13 UTC

1 42322U 95015JQ  26250.46765669  .00030907  00000-0  33862-2 0  9990
2 42322  98.7579 329.7796 0017581  89.4796 270.8432 14.87578484595054

Verfolge DMSP 5D-2 F13 DEB in Echtzeit mit AllMySat

Download on the App Store